Location: Wavehorne
(51.0500°N, 0.8333°E)
Time: 01:08:13
(UTC+00:00)

NOSS 2-2 (C) - Visible Passes

Search period start: 24 October 2021 00:00
Search period end: 03 November 2021 00:00
Orbit: 451 x 1756 km, 63.3° (Epoch: 22 October)

Date Brightness Start Highest point End Pass type
(mag) Time Alt. Az. Time Alt. Az. Time Alt. Az.
24 Oct 6.6 02:03:11 18° E 02:03:11 18° E 02:05:04 10° E visible
24 Oct 4.3 03:50:36 62° SSW 03:50:36 62° SSW 03:57:18 10° SSE visible
24 Oct 6.0 05:38:02 12° W 05:40:34 15° WSW 05:44:18 10° SW visible
25 Oct 5.4 03:07:11 38° SE 03:07:11 38° SE 03:11:37 10° SE visible
25 Oct 5.5 04:54:37 23° WSW 04:55:09 23° WSW 05:00:39 10° SSW visible
26 Oct 6.6 02:23:50 18° ESE 02:23:50 18° ESE 02:25:37 10° ESE visible
26 Oct 5.4 04:11:17 31° SSW 04:11:17 31° SSW 04:16:08 10° S visible
27 Oct 6.1 03:28:03 24° SSE 03:28:03 24° SSE 03:31:03 10° SSE visible
27 Oct 6.5 05:15:30 11° WSW 05:15:30 11° WSW 05:16:16 10° SW visible
27 Oct 5.3 19:09:14 10° SSW 19:09:58 16° SSW 19:09:58 16° SSW visible
28 Oct 6.9 02:44:52 13° SE 02:44:52 13° SE 02:45:33 10° SE visible
28 Oct 6.5 04:32:19 13° SSW 04:32:19 13° SSW 04:33:38 10° SSW visible
28 Oct 4.2 18:24:11 10° S 18:26:17 25° SSE 18:26:17 25° SSE visible
29 Oct 6.9 03:49:13 11° S 03:49:13 11° S 03:49:29 10° S visible
29 Oct 4.7 17:39:50 10° SSE 17:41:55 15° ESE 17:42:32 15° ESE visible
29 Oct 5.2 19:28:33 10° WSW 19:29:57 23° WSW 19:29:57 23° WSW visible
30 Oct 2.9 18:42:57 10° SW 18:46:07 76° S 18:46:07 76° S visible
31 Oct 3.4 17:57:40 10° SSW 18:00:53 41° SE 18:02:15 28° ENE visible
31 Oct 5.9 19:48:29 10° W 19:49:37 17° WNW 19:49:37 17° WNW visible
01 Nov 4.4 17:12:53 10° S 17:15:34 22° ESE 17:18:18 10° ENE visible
01 Nov 4.1 19:02:29 10° WSW 19:05:41 41° NW 19:05:41 41° NW visible
02 Nov 3.1 18:16:44 10° SW 18:20:07 72° NW 18:21:41 32° NE visible
02 Nov 6.4 20:08:45 10° WNW 20:09:04 11° WNW 20:09:04 11° WNW visible
